Philadelphia, PA

9:46 AM EDT on July 26, 2016 (GMT -0400)
Philadelphia International

Weather History for KPHL - October, 2013

Change the Weather History Date:

Monday, October 21, 2013

  Actual Average Record
Temperature  
Mean Temperature 57 °F 56 °F  
Max Temperature 68 °F 65 °F 86 °F (1947)
Min Temperature 45 °F 47 °F 28 °F (1952)
Degree Days  
Heating Degree Days 8 10  
Month to date heating degree days 61 142  
Since 1 July heating degree days 97 180  
Cooling Degree Days 0 0  
Month to date cooling degree days 65 19  
Year to date cooling degree days 1411 1297  
Growing Degree Days 6 (Base 50)    
Moisture  
Dew Point 41 °F    
Average Humidity 56    
Maximum Humidity 82    
Minimum Humidity 29    
Precipitation  
Precipitation 0.00 in 0.10 in 2.21 in (1904)
Month to date precipitation 2.40 2.21  
Year to date precipitation 47.90 34.01  
Snow  
Snow 0.00 in 0.00 in 0.00 in (1870)
Month to date snowfall 0.0 0.0  
Since 1 July snowfall 0.0 0.0  
Since 1 September snowfall 0.0 0.0  
Snow Depth 0.00 in    
Sea Level Pressure  
Sea Level Pressure 30.10 in    
Wind  
Wind Speed 6 mph (SSW)    
Max Wind Speed 16 mph    
Max Gust Speed 21 mph    
Visibility 10 miles    
Events      
T = Trace of Precipitation, MM = Missing Value Source: NWS Daily Summary

Daily Weather History Graph

Daily Weather History Graph

Search for Another Location

Airport or City:

Trip Planner

Search our weather history database for the weather conditions in past years. The results will help you decide how hot, cold, wet, or windy it might be!

Date:

Astronomy

Oct. 21, 2013 Rise Set
Actual Time 7:17 AM EDT 6:12 PM EDT
Civil Twilight 6:50 AM EDT 6:39 PM EDT
Nautical Twilight 6:18 AM EDT 7:11 PM EDT
Astronomical Twilight 5:47 AM EDT 7:42 PM EDT
Moon 8:03 PM EDT (10/21) 9:50 AM EDT (10/21)
Length of Visible Light 11h 49m
Length of Day
10h 54m
Waning Gibbous, 93% of the Moon is Illuminated
Oct 21
Waning Gibbous
Oct 26
Last Quarter
Nov 3
New
Nov 10
First Quarter
Nov 17
Full

Hourly Weather History & Observations

Time (EDT) Temp. Dew Point Humidity Pressure Visibility Wind Dir Wind Speed Gust Speed Precip Events Conditions
12:54 AM 50.0 °F 41.0 °F 71% 30.10 in 10.0 mi Calm Calm - N/A   Clear
1:54 AM 48.0 °F 41.0 °F 77% 30.12 in 10.0 mi WSW 6.9 mph - N/A   Clear
2:54 AM 48.0 °F 42.1 °F 80% 30.12 in 10.0 mi Calm Calm - N/A   Clear
3:54 AM 48.0 °F 42.1 °F 80% 30.13 in 10.0 mi Calm Calm - N/A   Clear
4:54 AM 46.0 °F 39.0 °F 76% 30.14 in 10.0 mi Calm Calm - N/A   Clear
5:54 AM 46.0 °F 37.9 °F 73% 30.15 in 10.0 mi Calm Calm - N/A   Clear
6:54 AM 46.9 °F 41.0 °F 80% 30.15 in 10.0 mi Calm Calm - N/A   Clear
7:54 AM 46.9 °F 39.9 °F 77% 30.16 in 10.0 mi Calm Calm - N/A   Clear
8:54 AM 51.1 °F 45.0 °F 80% 30.18 in 10.0 mi Calm Calm - N/A   Clear
9:54 AM 55.0 °F 46.0 °F 72% 30.17 in 10.0 mi Calm Calm - N/A   Clear
10:54 AM 57.9 °F 43.0 °F 58% 30.17 in 10.0 mi SW 4.6 mph - N/A   Clear
11:54 AM 63.0 °F 39.9 °F 43% 30.14 in 10.0 mi WSW 9.2 mph - N/A   Partly Cloudy
12:54 PM 64.9 °F 36.0 °F 34% 30.12 in 10.0 mi SSW 5.8 mph - N/A   Partly Cloudy
1:54 PM 66.0 °F 36.0 °F 33% 30.09 in 10.0 mi SW 6.9 mph 20.7 mph N/A   Partly Cloudy
2:54 PM 66.9 °F 34.0 °F 30% 30.07 in 10.0 mi SSW 11.5 mph - N/A   Partly Cloudy
3:54 PM 66.9 °F 34.0 °F 30% 30.05 in 10.0 mi SSW 12.7 mph - N/A   Partly Cloudy
4:54 PM 64.9 °F 36.0 °F 34% 30.04 in 10.0 mi South 11.5 mph - N/A   Scattered Clouds
5:54 PM 62.1 °F 36.0 °F 38% 30.04 in 10.0 mi South 9.2 mph - N/A   Scattered Clouds
6:54 PM 59.0 °F 39.0 °F 48% 30.05 in 10.0 mi South 8.1 mph - N/A   Scattered Clouds
7:54 PM 57.0 °F 43.0 °F 59% 30.05 in 10.0 mi SSE 9.2 mph - N/A   Scattered Clouds
8:54 PM 55.9 °F 45.0 °F 67% 30.05 in 10.0 mi South 6.9 mph - N/A   Scattered Clouds
9:54 PM 54.0 °F 45.0 °F 72% 30.03 in 10.0 mi SSE 6.9 mph - N/A   Mostly Cloudy
10:54 PM 55.0 °F 46.0 °F 72% 30.02 in 10.0 mi South 5.8 mph - N/A   Mostly Cloudy
11:54 PM 55.9 °F 46.9 °F 72% 29.99 in 10.0 mi South 9.2 mph - N/A   Overcast